EHI
0 0 0 0 0 0 0 0 0 0 0 0 0 0 0 0 0 0 0 0 0 0 0 0 0 0 0 0 0 0 0 0 0 0 0 0 0 0 0 0 0 0 0
0 0 0 0 0 0 0 0 0 0 0 0 0 0 0 0 0 0 0 0 0 0 0 0 0 0 0 0 0 0 0 0 0 0 0 0 0 0 0 0 0 0 0
0 0 0 0 0 0 0 0 0 0 0 0 0 0 0 0 0 0 0 0 0 0 0 0 0 0 0 0 0 0 0 0 0 0 0 0 0 0 0 0 0 0 0
0 0 0 0 0 0 0 0 0 0 0 0 0 0 0 0 0 0 0 0 0 0 0 0 0 0 0 0 0 0 0 0 0 0 0 0 0 0 0 0 0 0 0
0 0 0 0 0 0 0 0 0 0 0 0 0 0 0 0 0 0 0 0 0 0 0 0 0 0 0 0 0 0 0 0 0 0 0 0 0 0 0 0 0 0 0
0 0 0 0 0 0 0 0 0 0 0 0 0 0 0 0 0 0 0 0 0 0 0 0 0 0 0 0 0 0 0 0 0 0 0 0 0 0 0 0 0 0 0
0 0 0 0 0 0 0 0 0 0 0 0 0 0 0 0 0 0 0 0 0 0 0 0 0 0 0 0 0 0 0 0 0 0 0 0 0 0 0 0 0 0 0
0 0 0 0 0 0 0 0 0 0 0 0 0 0 0 0 0 0 0 0 0 0 0 0 0 0 0 0 0 0 0 0 0 0 0 0 0 0 0 0 0 0 0
0 0 0 0 0 0 0 0 0 0 0 0 0 0 0 0 0 0 0 0 0 0 0 0 0 0 0 0 0 0 0 0 0 0 0 0 0 0 0 0 0 0 0
0 0 0 0 0 0 0 0 0 0 0 0 0 0 0 0 0 0 0 0 0 0 0 0 0 0 0 0 0 0 0 0 0 0 0 0 0 0 0 0 0 0 0
0 0 0 0 0 0 0 0 0 0 0 0 0 0 0 0 0 0 0 0 0 0 0 0 0 0 0 0 0 0 0 0 0 0 0 0 0 0 0 0 0 0 0
0 0 0 0 0 0 0 0 0 0 0 0 0 0 0 0 0 0 0 0 0 0 0 0 0 0 0 0 0 0 0 0 0 0 0 0 0 0 0 0 0 0 0
0 0 0 0 0 0 0 0 0 0 0 0 0 0 0 0 0 0 0 0 0 0 0 0 0 0 0 0 0 0 0 0 0 0 0 0 0 0 0 0 0 0 0
0 0 0 0 0 0 0 0 0 0 0 0 0 0 0 0 0 0 0 0 0 0 0 0 0 0 0 0 0 0 0 0 0 0 0 0 0 0 0 0 0 0 0
0 0 0 0 0 0 0 0 0 0 0 0 0 0 0 0 0 0 0 0 0 0 0 0 0 0 0 0 0 0 0 0 0 0 0 0 0 0 0 0 0 0 0
0 0 0 0 0 0 0 0 0 0 0 0 0 0 0 0 0 0 0 0 0 0 0 0 0 0 0 0 0 0 0 0 0 0 0 0 0 0 0 0 0 0 0
0 0 0 0 0 0 0 0 0 0 0 0 0 0 0 0 0 0 0 0 0 0 0 0 0 0 0 0 0 0 0 0 0 0 0 0 0 0 0 0 0 0 0
0 0 0 0 0 0 0 0 0 0 0 0 0 0 0 0 0 0 0 0 0 0 0 0 0 0 0 0 0 0 0 0 0 0 0 0 0 0 0 0 0 0 0
0 0 0 0 0 0 0 0 0 0 0 0 0 0 0 0 0 0 0 0 0 0 0 0 0 0 0 0 0 0 0 0 0 0 0 0 0 0 0 0 0 0 0
0 0 0 0 0 0 0 0 0 0 0 0 0 0 0 0 0 0 0 0 0 0 0 0 0 0 0 0 0 0 0 0 0 0 0 0 0 0 0 0 0 0 0
0 0 0 0 0 0 0 0 0 0 0 0 0 0 0 0 0 0 0 0 0 0 0 0 0 0 0 0 0 0 0 0 0 0 0 0 0 0 0 0 0 0 0
0 0 0 0 0 0 0 0 0 0 0 0 0 0 0 0 0 0 0 0 0 0 0 0 0 0 0 0 0 0 0 0 0 0 0 0 0 0 0 0 0 0 0
0 0 0 0 0 0 0 0 0 0 0 0 0 0 0 0 0 0 0 0 0 0 0 0 0 0 0 0 0 0 0 0 0 0 0 0 0 0 0 0 0 0 0
0 0 0 0 0 0 0 0 0 0 0 0 0 0 0 0 0 0 0 0 0 0 0 0 0 0 0 0 0 0 0 0 0 0 0 0 0 0 0 0 0 0 0
0 0 0 0 0 0 0 0 0 0 0 0 0 0 0 0 0 0 0 0 0 0 0 0 0 0 0 0 0 0 0 0 0 0 0 0 0 0 0 0 0 0 0
0 0 0 0 0 0 0 0 0 0 0 0 0 0 0 0 0 0 0 0 0 0 0 0 0 0 0 0 0 0 0 0 0 0 0 0 0 0 0 0 0 0 0
Wind_Speed
2 2 2 2 2 2 2 2 2 2 3 3 3 3 4 4 4 4 4 4 5 5 4 5 5 4 3 3 3 3 3 3 3 2 1 1 2 2 2 2 3 3 3
1 1 2 2 2 2 2 2 2 2 2 3 3 3 4 4 4 5 5 5 6 6 6 6 5 4 5 4 4 4 3 3 4 4 2 2 3 3 3 2 2 3 3
1 1 1 1 2 2 2 2 1 1 2 2 3 3 3 4 5 5 5 6 5 6 6 6 6 6 6 5 5 5 4 3 3 3 3 2 2 2 2 2 2 2 3
2 2 2 2 2 2 2 2 1 1 2 3 3 3 3 3 4 5 5 5 5 5 5 6 6 6 7 6 5 6 4 4 3 3 3 3 2 2 2 2 2 2 2
2 2 2 2 2 1 1 1 1 1 2 2 2 3 3 3 4 5 5 5 5 5 5 5 5 7 8 7 6 6 5 4 4 4 4 3 3 3 3 3 3 2 3
3 3 2 2 2 2 2 2 2 2 2 2 3 3 3 3 5 6 5 5 5 5 5 5 5 6 7 9 10 9 9 7 7 6 5 5 6 4 3 3 3 2 3
3 2 2 2 2 2 2 2 2 2 2 2 3 3 3 4 6 7 6 4 4 5 5 5 4 5 6 5 6 7 8 10 10 8 7 7 6 6 5 5 4 4 4
2 2 2 2 2 2 2 2 2 2 2 3 3 3 3 4 6 7 6 4 3 4 5 5 5 5 5 5 5 5 5 5 6 6 6 6 5 5 6 6 5 3 2
3 3 2 3 3 2 2 2 2 2 2 2 3 3 3 4 6 6 5 2 3 3 4 4 5 5 7 8 5 5 5 4 5 6 6 6 7 7 6 3 3 3 3
3 3 3 3 3 3 3 2 2 2 2 2 2 3 3 3 6 6 4 2 3 3 3 4 6 7 8 8 6 5 6 4 3 3 3 4 4 5 7 6 5 4 3
2 2 2 3 3 3 2 2 2 2 2 2 3 3 3 3 5 5 5 2 3 3 3 3 3 7 8 8 7 5 7 5 4 4 4 3 3 3 4 4 4 4 4
1 1 2 2 2 2 2 2 2 2 2 2 2 2 2 3 3 5 6 5 4 3 3 2 3 6 7 7 6 6 7 5 3 3 3 3 3 3 3 3 3 3 3
1 1 1 1 1 2 2 2 2 2 2 2 2 2 2 1 2 4 5 5 5 2 2 4 5 6 5 4 5 7 6 3 3 3 4 3 3 3 2 2 2 1 1
1 1 1 1 1 1 2 2 2 2 2 2 2 2 2 2 2 2 2 2 3 3 2 3 5 5 4 4 4 3 3 3 3 4 3 2 2 2 2 2 2 2 1
1 1 1 1 1 1 1 1 2 2 3 3 3 3 3 3 3 4 3 2 2 2 2 1 2 2 2 2 2 2 2 2 3 2 3 2 2 3 2 2 2 2 2
1 1 1 1 1 1 1 0 1 2 4 5 5 5 4 5 5 6 6 6 5 5 3 2 2 3 3 3 2 2 2 2 3 3 3 3 3 3 2 2 2 3 3
2 2 1 1 1 1 1 1 1 2 3 4 5 5 5 5 6 6 6 6 5 4 2 2 2 2 2 2 2 2 2 2 2 3 3 3 3 3 3 3 3 3 3
2 2 2 1 1 1 1 1 1 1 2 2 3 5 5 5 5 6 6 4 3 2 2 2 2 2 2 2 2 2 2 2 2 3 3 3 3 3 3 3 3 3 3
2 1 1 1 1 1 1 1 1 2 2 2 2 3 4 4 4 4 3 2 2 2 2 2 2 2 2 2 2 2 2 3 3 3 3 3 3 3 3 3 3 5 4
2 3 2 1 1 1 1 1 1 1 1 1 2 2 1 1 1 2 2 2 2 2 2 2 2 2 2 2 2 2 2 3 3 3 3 3 3 4 4 4 4 4 4
2 2 3 2 1 1 1 1 1 1 1 1 2 2 4 2 2 2 2 2 2 2 2 2 2 2 2 2 3 3 3 3 3 3 3 3 3 3 3 3 4 3 3
1 1 1 1 1 1 1 1 1 1 1 2 2 2 4 2 1 1 2 2 2 2 2 2 2 2 3 3 3 3 3 4 4 4 3 3 4 4 4 3 4 4 3
1 1 1 1 1 2 2 1 1 1 2 2 2 2 2 1 1 2 2 2 2 2 2 2 2 2 2 2 3 3 4 4 4 4 4 4 4 4 4 4 5 5 5
1 1 1 1 1 1 1 1 1 2 2 2 2 2 2 1 2 2 2 2 2 2 2 2 2 4 4 4 3 3 3 4 4 4 6 5 5 5 4 5 5 6 5
1 1 1 1 1 1 1 2 2 2 2 2 2 2 2 2 2 2 2 2 2 2 3 3 3 3 4 5 5 4 6 8 7 5 5 5 6 6 6 6 5 5 5
1 1 1 1 1 2 2 2 2 2 2 2 2 2 2 2 2 2 2 2 2 2 3 3 3 4 5 5 6 7 8 9 9 9 6 5 6 6 6 6 7 6 6
Wind_Direction
178 174 179 171 171 183 200 206 201 204 195 193 194 199 192 191 194 194 200 200 201 204 207 200 205 202 199 198 198 204 214 203 225 253 236 204 196 213 231 218 219 216 226
175 175 188 174 170 187 203 217 200 199 201 200 192 199 204 196 196 196 201 204 204 204 207 202 206 202 202 200 198 206 214 210 205 225 226 208 210 210 211 220 235 227 225
173 184 191 191 186 197 209 218 218 206 198 205 198 202 213 207 203 206 204 204 208 210 207 205 206 201 209 207 204 209 214 218 207 206 217 211 213 201 201 229 242 239 244
178 187 203 213 209 209 215 215 217 200 203 207 207 207 217 220 212 209 208 205 207 213 212 210 209 207 210 205 207 208 207 208 206 205 205 206 208 206 189 206 235 233 247
184 200 219 224 221 207 206 207 213 215 225 216 204 209 217 222 215 205 204 206 212 215 214 215 215 218 221 217 213 203 197 202 202 208 208 201 200 194 205 203 220 231 248
200 211 219 221 222 214 204 195 199 209 214 216 210 209 215 234 234 226 219 205 212 214 214 217 221 222 226 230 229 222 211 205 204 208 212 207 209 205 198 201 204 213 246
215 215 211 211 224 223 213 206 208 208 207 220 227 222 223 231 240 232 232 222 212 217 216 212 220 222 219 215 224 232 234 231 221 209 210 211 205 200 194 205 213 225 237
222 224 218 212 220 220 213 219 228 221 219 225 231 232 239 245 247 241 232 224 218 222 216 211 213 213 211 209 208 214 224 230 230 220 214 215 208 198 197 204 211 227 259
220 228 226 214 212 210 216 226 236 231 237 238 234 229 235 250 250 247 232 215 224 230 223 216 213 211 218 220 209 212 225 236 244 238 232 228 225 218 208 192 198 211 243
235 234 229 219 211 214 218 227 236 232 233 238 244 238 238 245 250 249 231 207 224 235 227 222 226 222 222 222 209 205 218 223 218 227 228 233 224 214 215 209 203 210 225
258 242 232 222 215 219 218 222 227 227 224 233 240 243 238 241 246 244 235 218 219 230 233 230 231 232 230 230 228 216 224 226 213 215 216 212 206 204 207 210 208 212 215
274 245 237 223 215 210 200 215 216 214 218 229 230 243 240 237 241 243 241 247 246 226 232 235 233 237 239 239 240 231 232 231 209 207 212 214 211 210 205 205 207 219 230
261 244 228 214 209 208 199 203 203 202 211 227 223 234 248 238 240 254 252 258 264 262 243 253 254 249 249 243 240 235 229 214 199 207 216 219 212 200 184 186 190 194 255
257 247 228 204 198 208 209 205 199 203 214 226 232 238 250 247 239 238 231 244 258 267 256 249 256 254 251 243 241 231 215 201 201 209 213 210 193 188 199 199 205 197 221
283 263 252 202 183 189 211 218 218 219 219 222 225 226 232 235 238 252 254 237 229 238 247 241 236 235 229 218 217 215 201 199 213 198 196 199 202 203 209 201 201 201 216
280 278 259 206 195 194 198 267 278 259 256 256 254 252 256 255 253 253 259 262 260 254 254 236 235 224 222 217 214 216 211 207 208 201 196 196 199 201 200 201 208 213 223
282 282 284 249 217 224 222 213 263 307 293 274 263 260 260 254 248 250 254 260 256 249 249 239 234 221 219 217 216 217 223 219 209 200 196 193 191 195 198 205 216 222 230
304 294 299 277 238 231 235 241 243 247 273 287 283 274 270 263 254 253 253 258 246 244 235 236 235 225 219 220 219 220 219 207 202 198 195 191 189 194 203 211 215 221 230
310 306 303 298 285 271 265 262 257 255 259 270 286 281 275 272 267 264 255 232 224 234 232 230 229 225 221 218 220 219 214 209 203 197 200 197 194 195 208 217 221 228 235
310 307 316 312 298 299 285 269 269 265 266 266 264 264 261 253 243 253 256 230 225 234 234 231 231 229 219 213 214 216 220 214 204 202 205 203 200 203 210 215 220 223 229
311 302 308 320 319 305 295 280 272 264 258 266 275 273 269 239 221 231 239 238 227 225 225 226 226 223 222 218 218 218 223 223 210 204 201 201 200 205 213 218 220 220 226
317 312 311 316 320 312 305 295 286 280 273 273 285 292 293 303 267 253 254 254 253 244 231 227 233 232 225 219 216 219 228 223 210 205 204 204 204 206 207 211 216 217 217
334 327 326 327 326 298 311 323 311 295 292 295 294 293 290 287 281 275 274 272 265 263 252 234 233 241 244 239 228 222 228 229 215 202 202 203 205 206 204 208 211 214 218
334 326 317 312 312 309 306 305 302 298 296 294 295 291 286 279 278 281 279 273 269 270 265 250 240 239 243 248 244 236 235 232 216 206 201 203 206 206 205 208 213 218 222
325 317 311 306 298 295 296 296 296 298 299 295 293 293 293 291 288 287 284 279 270 267 267 263 252 243 240 243 246 244 242 241 234 219 201 202 205 205 205 208 212 216 222
315 313 309 309 308 303 297 294 293 294 293 294 293 289 285 283 283 284 286 283 277 273 272 268 257 250 249 249 247 246 247 245 240 236 224 209 206 206 204 208 209 215 220